Location: Ward Pound Ridge Reservation
(41.2500°N, 73.6000°W)
Time: 02:09:08
(UTC-04:00)

Tiangong 2 - Pass Details

Date: 12 October 2017
Orbit: 388 x 391 km, 42.8° (Epoch: 22 October)

Event Time Altitude Azimuth Distance (km) Brightness Sun altitude
Exits shadow 05:16:10 66° 93° (E) 429 1.4 -20.8°
Drops below altitude 10° 05:19:00 10° 77° (ENE) 1,422 5.1 -20.3°
Sets 05:21:05 0° 77° (ENE) 2,279 6.6 -19.9°
